DW9314 Weather Reports


Display with metric or nautical units.
time (UTC)temp
F
wind
direction
speed
MPH
gust
MPH
rain 1hr
in
rain 24hr
in
rain mn
in
humidity
%
barometer
mb
20210925121502 0 0.0 0.0 0.00 0.00 0.00 1017.3
20210925120207 0 0.0 0.0 0.00 0.00 0.00 1017.4
20210925114548 0 0.0 0.0 0.00 0.00 0.00 1017.5
20210925113043 0 0.0 0.0 0.00 0.00 0.00 1017.6
20210925111534 0 0.0 0.0 0.00 0.00 0.00 1017.5
20210925104620 53 254 0.0 0.0 0.00 0.00 0.00 100 1017.5
20210925103041 54 254 0.0 0.0 0.00 0.00 0.00 100 1017.5
20210925101530 54 254 0.0 0.0 0.00 0.00 0.00 100 1017.5
20210925100024 54 254 0.0 0.0 0.00 0.00 0.00 100 1017.3
20210925094750 54 254 0.0 0.0 0.00 0.00 0.00 100 1017.2
20210925093140 54 254 0.0 0.0 0.00 0.00 0.00 100 1017.3
20210925091609 54 254 0.0 0.0 0.00 0.00 0.00 100 1017.1
20210925090051 54 252 0.0 0.0 0.00 0.00 0.00 100 1017.1
20210925084541 54 252 0.0 0.0 0.00 0.00 0.00 100 1017.1
20210925083050 54 252 0.0 0.0 0.00 0.00 0.00 100 1017.2
20210925081534 54 252 0.0 0.0 0.00 0.00 0.00 100 1017.3
20210925080113 55 252 0.0 0.0 0.00 0.00 0.00 100 1017.4
20210925074537 55 252 0.0 0.0 0.00 0.00 0.00 100 1017.4
20210925073131 56 252 0.0 0.0 0.00 0.00 0.00 100 1017.5
20210925071539 55 249 0.0 0.0 0.00 0.00 0.00 100 1017.4
20210925070114 55 249 0.0 0.0 0.00 0.00 0.00 100 1017.3
20210925064530 55 249 0.0 0.0 0.00 0.00 0.00 100 1017.5
20210925063029 55 249 0.0 0.0 0.00 0.00 0.00 100 1017.7
20210925061543 55 249 0.0 0.0 0.00 0.00 0.00 100 1017.6
20210925060013 55 249 0.0 0.0 0.00 0.00 0.00 100 1017.5
20210925053119 55 249 0.0 0.0 0.00 0.00 0.00 100 1017.5
20210925051633 55 249 0.0 0.0 0.00 0.00 0.00 100 1017.5
20210925050125 55 249 0.0 0.0 0.00 0.00 0.00 100 1017.7
20210925044557 55 249 0.0 0.0 0.00 0.00 0.00 100 1017.7
20210925043036 55 249 0.0 0.0 0.00 0.00 0.00 100 1017.7
20210925041639 55 249 0.0 0.0 0.00 0.00 0.00 100 1017.6
20210925040159 55 249 0.0 1.0 0.00 0.00 0.00 100 1017.6
20210925034637 56 249 0.0 0.0 0.00 0.00 0.00 100 1017.7
20210925033107 56 249 0.0 0.0 0.00 0.00 0.00 100 1017.7
20210925031600 56 249 0.0 1.0 0.00 0.00 0.00 100 1017.7
20210925030035 56 249 0.0 0.0 0.00 0.00 0.00 100 1017.6
20210925024603 57 249 0.0 0.0 0.00 0.00 0.00 100 1017.5
20210925023053 57 249 0.0 1.0 0.00 0.00 0.00 100 1017.7
20210925021533 58 249 0.0 0.0 0.00 0.00 0.00 100 1017.8
20210925020035 59 249 0.0 0.0 0.00 0.00 0.00 100 1017.8
20210925014817 60 249 0.0 0.0 0.00 0.00 0.00 100 1017.7
20210925013140 62 249 0.0 0.0 0.00 0.00 0.00 100 1017.6
20210925011523 63 249 0.0 0.0 0.00 0.00 0.00 100 1017.5
20210925010020 64 249 0.0 2.0 0.00 0.00 0.00 2 1017.5
20210925004648 64 249 0.0 0.0 0.00 0.00 0.00 8 1017.6
20210925003216 64 249 0.0 1.0 0.00 0.00 0.00 18 1017.4
20210925001554 64 249 0.0 3.0 0.00 0.00 0.00 25 1017.2
20210925000050 65 33 0.0 1.0 0.00 0.00 0.00 25 1017.1
20210924234513 65 33 0.0 0.0 0.00 0.00 0.00 17 1017.0
20210924233025 66 33 0.0 0.0 0.00 0.00 0.00 32 1016.8
20210924231511 67 33 0.0 1.0 0.00 0.00 0.00 36 1016.7
20210924230146 68 33 0.0 1.0 0.00 0.00 0.00 39 1016.8
20210924224632 69 33 0.0 1.0 0.00 0.00 0.00 44 1016.5
20210924223103 70 33 0.0 0.0 0.00 0.00 0.00 46 1016.4
20210924221729 71 33 0.0 1.0 0.00 0.00 0.00 47 1016.2
20210924220115 72 268 0.0 3.0 0.00 0.00 0.00 48 1016.1
20210924214524 72 250 0.0 3.0 0.00 0.00 0.00 48 1016.1
20210924213041 72 333 0.0 2.0 0.00 0.00 0.00 48 1016.0
20210924211621 73 252 0.0 5.0 0.00 0.00 0.00 48 1016.0
20210924210111 73 338 0.0 4.0 0.00 0.00 0.00 46 1015.8
20210924204549 74 306 1.0 4.0 0.00 0.00 0.00 45 1015.8
20210924203028 74 342 0.0 5.0 0.00 0.00 0.00 45 1015.8
20210924201502 75 360 0.0 7.0 0.00 0.00 0.00 45 1015.8
20210924200114 75 255 0.0 4.0 0.00 0.00 0.00 44 1015.7
20210924194553 76 272 0.0 5.0 0.00 0.00 0.00 45 1015.7
20210924193053 77 295 1.0 5.0 0.00 0.00 0.00 41 1015.6
20210924191536 78 355 0.0 4.0 0.00 0.00 0.00 43 1015.8
20210924190008 77 205 0.0 5.0 0.00 0.00 0.00 41 1015.8
20210924184646 76 178 0.0 4.0 0.00 0.00 0.00 45 1015.9
20210924183100 75 219 0.0 5.0 0.00 0.00 0.00 45 1016.1
20210924181521 76 303 0.0 5.0 0.00 0.00 0.00 44 1016.2
20210924180028 76 281 0.0 5.0 0.00 0.00 0.00 44 1016.4
20210924173057 74 285 0.0 6.0 0.00 0.00 0.00 45 1016.8
20210924171559 74 5 0.0 4.0 0.00 0.00 0.00 43 1017.0
20210924170023 72 219 0.0 4.0 0.00 0.00 0.00 38 1017.1
20210924164537 71 273 1.0 6.0 0.00 0.00 0.00 35 1017.2
20210924163133 70 261 1.0 5.0 0.00 0.00 0.00 20 1017.2
20210924161700 69 355 0.0 6.0 0.00 0.00 0.00 13 1017.3
20210924160048 66 300 0.0 6.0 0.00 0.00 0.00 100 1017.3
20210924154549 65 198 1.0 4.0 0.00 0.00 0.00 100 1017.1
20210924153008 64 250 1.0 7.0 0.00 0.00 0.00 100 1017.1
20210924151504 61 265 1.0 6.0 0.00 0.00 0.00 100 1017.1
20210924150114 60 13 0.0 3.0 0.00 0.00 0.00 100 1017.3
20210924144618 59 254 0.0 3.0 0.00 0.00 0.00 100 1017.1
20210924143119 59 254 0.0 4.0 0.00 0.00 0.00 100 1017.2
20210924141628 59 44 0.0 3.0 0.00 0.00 0.00 100 1017.1
20210924140056 58 255 0.0 1.0 0.00 0.00 0.00 100 1017.3
20210924134548 58 255 0.0 3.0 0.00 0.00 0.00 100 1017.3
20210924133026 58 255 0.0 1.0 0.00 0.00 0.00 100 1017.2
20210924131529 58 263 0.0 2.0 0.00 0.00 0.00 100 1017.0
20210924130216 57 254 0.0 4.0 0.00 0.00 0.00 100 1017.0
20210924124635 57 41 0.0 0.0 0.00 0.00 0.00 100 1017.0
20210924123036 57 41 0.0 0.0 0.00 0.00 0.00 100 1016.8